User: anonymous   Login
Location: Ford County Road and Bridge Department
(37.7686°N, 99.9762°W)
Time: 18:02:55
(UTC+00:00)
Language:

CZ-2D R/B - Orbit

View from above orbital plane
View from above orbital plane
View from above satellite
View from above satellite

Ground track
Ground track

The orbit data is extracted from the following two-line orbital elements,

1 28738U 05024B   20099.82718372 +.00000275 +00000-0 +19637-4 0  9991
2 28738 097.3893 124.6864 0013558 067.9561 292.3108 15.11994906810881
Epoch (UTC): 08 April 2020 19:51:08
Eccentricity: 0.0013558
inclination: 97.3893°
perigee height: 521 km
apogee height: 539 km
right ascension of ascending node: 124.6864°
argument of perigee: 67.9561°
revolutions per day: 15.11994906
mean anomaly at epoch: 292.3108°
orbit number at epoch: 81088

The dashed part of the orbit path shows where the satellite is in the earth's shadow,  

DLR